Tracking 25693 objects as of 1-Jul-2022
HD Live streaming from Space Station
objects crossing your sky now

COSMOS 1247

Track COSMOS 1247 now!
COSMOS 1247 is classified as:


NORAD ID: 12303
Int'l Code: 1981-016A
Perigee: 2,490.3 km
Apogee: 37,549.0 km
Inclination: 66.6 °
Period: 711.1 minutes
Semi major axis: 26390 km
RCS: 8.0719 m2 (large)
Launch date: February 19, 1981
Source: Commonwealth of Independent States (former USSR) (CIS)
Launch site: PLESETSK MISSILE AND SPACE COMPLEX (PKMTR)
aabbcc
Your satellite tracking list
Your tracking list is empty




NASA's NSSDC Master Catalog

Two Line Element Set (TLE):
1 12303U 81016A   22182.19865260 -.00000820  00000-0  00000-0 0  9998
2 12303  66.6369 106.4908 6642257  15.8021 357.5106  2.02501618305879
Source of the keplerian elements: AFSPC